FW8327 Weather Reports


time (UTC)temp
F
wind
direction
speed
knots
gust
knots
rain 1hr
in
rain 24hr
in
rain mn
in
humidity
%
barometer
mb
20260906073445 66 109 0.0 0.0 0.00 0.00 0.00 96 1014.2
20260906072941 66 117 0.0 0.0 0.00 0.00 0.00 95 1014.2
20260906072436 67 82 0.0 0.0 0.00 0.00 0.00 94 1014.3
20260906071932 67 113 0.0 0.0 0.00 0.00 0.00 93 1014.3
20260906071427 67 131 0.0 0.0 0.00 0.00 0.00 94 1014.3
20260906070923 67 112 0.0 0.0 0.00 0.00 0.00 94 1014.4
20260906070413 67 78 0.0 0.0 0.00 0.00 0.00 93 1014.4
20260906065908 67 54 0.0 0.0 0.00 0.00 0.00 94 1014.2
20260906065403 68 91 0.0 0.0 0.00 0.00 0.00 94 1014.3
20260906064859 68 57 0.0 0.0 0.00 0.00 0.00 95 1014.4
20260906064354 68 46 0.0 0.0 0.00 0.00 0.00 95 1014.4
20260906063849 68 39 0.0 0.0 0.00 0.00 0.00 96 1014.3
20260906063344 68 108 0.0 0.0 0.00 0.00 0.00 96 1014.3
20260906062839 68 111 0.0 0.0 0.00 0.00 0.00 96 1014.2
20260906062338 68 114 0.0 0.0 0.00 0.00 0.00 97 1014.2
20260906061834 68 83 0.0 0.0 0.00 0.00 0.00 97 1014.2
20260906061330 68 53 0.0 0.0 0.00 0.00 0.00 97 1014.3
20260906060824 68 48 0.0 0.0 0.00 0.00 0.00 97 1014.1
20260906060323 68 80 0.0 0.0 0.00 0.00 0.00 97 1014.1
20260906055818 68 118 0.0 0.0 0.00 0.00 0.00 97 1014.0
20260906055314 69 50 0.0 0.0 0.00 0.00 0.00 98 1014.2
20260906054809 69 44 0.0 0.0 0.00 0.00 0.00 98 1013.9
20260906054304 69 45 0.0 0.0 0.00 0.00 0.00 99 1013.7
20260906053800 69 40 0.0 0.0 0.00 0.00 0.00 99 1013.9
20260906053255 69 51 0.0 0.0 0.00 0.00 0.00 99 1013.8
20260906052750 69 31 0.0 0.0 0.00 0.00 0.00 99 1013.9
20260906052247 69 37 0.0 0.0 0.00 0.00 0.00 99 1013.7
20260906051744 70 89 0.0 0.0 0.00 0.00 0.00 99 1013.8
20260906051244 70 92 0.0 0.0 0.00 0.00 0.00 99 1013.6
20260906050738 70 139 0.0 0.0 0.00 0.00 0.00 99 1013.9
20260906050234 70 51 0.0 0.0 0.00 0.00 0.00 99 1013.8
20260906045732 70 110 0.0 0.0 0.00 0.00 0.00 99 1014.0
20260906045227 70 71 0.0 0.0 0.00 0.00 0.00 99 1013.6
20260906044723 71 41 0.0 0.9 0.00 0.00 0.00 99 1013.6
20260906044218 71 52 0.0 0.0 0.00 0.00 0.00 99 1013.5
20260906043714 71 85 0.0 0.0 0.00 0.00 0.00 99 1013.5
20260906043210 71 53 0.0 0.0 0.00 0.00 0.00 99 1013.6
20260906042709 71 32 0.9 1.7 0.00 0.00 0.00 99 1013.7
20260906042203 71 70 0.0 0.0 0.00 0.00 0.00 99 1013.6
20260906041658 71 130 0.0 0.0 0.00 0.00 0.00 99 1013.7
20260906041154 71 52 0.9 0.9 0.00 0.00 0.00 99 1013.5
20260906040649 71 87 0.0 0.0 0.00 0.00 0.00 99 1013.7
20260906040145 71 30 0.0 0.9 0.00 0.00 0.00 99 1013.7
20260906035644 72 79 0.9 1.7 0.00 0.00 0.00 99 1013.5
20260906035140 72 30 0.0 0.0 0.00 0.00 0.00 99 1013.8
20260906034635 72 84 0.0 0.0 0.00 0.00 0.00 99 1013.8
20260906034129 72 29 0.9 1.7 0.00 0.00 0.00 99 1013.7
20260906033625 72 33 0.0 0.0 0.00 0.00 0.00 99 1013.6
20260906033120 72 37 0.9 1.7 0.00 0.00 0.00 99 1013.7
20260906032617 73 37 1.7 1.7 0.00 0.00 0.00 98 1013.8
20260906032117 73 28 0.9 1.7 0.00 0.00 0.00 98 1013.7
20260906031612 73 51 0.0 0.0 0.00 0.00 0.00 98 1013.6
20260906031108 73 42 0.0 0.0 0.00 0.00 0.00 98 1013.5
20260906030606 73 85 0.0 0.0 0.00 0.00 0.00 98 1013.4
20260906030101 73 136 0.0 0.0 0.00 0.00 0.00 97 1013.2
20260906025556 73 102 0.0 0.0 0.00 0.00 0.00 97 1013.0
20260906025054 73 89 0.0 0.0 0.00 0.00 0.00 97 1013.2
20260906024549 73 130 0.0 0.0 0.00 0.00 0.00 96 1013.0
20260906024049 73 169 0.0 0.0 0.00 0.00 0.00 97 1013.0
20260906023546 74 154 0.0 0.0 0.00 0.00 0.00 97 1013.0
20260906023040 74 151 0.0 0.0 0.00 0.00 0.00 97 1012.9
20260906022536 74 98 0.0 0.9 0.00 0.00 0.00 97 1012.7
20260906022031 74 57 0.0 0.9 0.00 0.00 0.00 97 1012.8
20260906021526 75 114 0.0 0.9 0.00 0.00 0.00 98 1012.7
20260906021020 75 143 0.0 0.0 0.00 0.00 0.00 98 1012.6
20260906020520 75 36 0.9 1.7 0.00 0.00 0.00 98 1012.8
20260906020019 75 39 0.0 0.0 0.00 0.00 0.00 99 1012.6
20260906015518 75 144 0.0 0.0 0.00 0.00 0.00 99 1012.5
20260906015018 75 33 0.0 0.0 0.00 0.00 0.00 99 1012.5
20260906014513 75 89 0.0 0.0 0.00 0.00 0.00 99 1012.5
20260906014009 75 30 0.0 0.0 0.00 0.00 0.00 99 1012.3
20260906013504 75 148 0.0 0.0 0.00 0.00 0.00 98 1012.1
20260906012959 75 168 0.0 0.0 0.00 0.00 0.00 98 1012.1
20260906012454 75 61 0.9 1.7 0.00 0.00 0.00 97 1012.2
20260906011954 75 100 0.0 0.0 0.00 0.00 0.00 98 1012.1
20260906011449 75 40 0.0 0.9 0.00 0.00 0.00 99 1012.0
20260906010944 76 98 0.0 0.0 0.00 0.00 0.00 99 1011.9
20260906010439 76 141 0.0 0.0 0.00 0.00 0.00 99 1011.8
20260906005935 76 61 0.0 0.0 0.00 0.00 0.00 99 1011.2
20260906005430 76 41 0.0 0.0 0.00 0.00 0.00 99 1011.6
20260906004928 75 12 0.9 1.7 0.00 0.00 0.00 99 1011.4
20260906004423 75 191 0.0 0.0 0.00 0.00 0.00 99 1011.2
20260906003919 75 155 0.0 0.0 0.00 0.00 0.00 99 1011.4
20260906003414 75 155 0.0 0.0 0.00 0.00 0.00 99 1011.4
20260906002909 75 175 0.0 0.0 0.00 0.00 0.00 99 1011.5
20260906002409 74 175 0.0 0.0 0.00 0.00 0.00 99 1011.1
20260906001904 75 175 0.0 0.0 0.00 0.00 0.00 99 1011.2
20260906001400 75 175 0.0 0.0 0.00 0.00 0.00 99 1011.0
20260906000859 75 175 0.0 0.0 0.00 0.00 0.00 99 1011.0
20260906000356 76 176 0.0 0.0 0.00 0.00 0.00 99 1011.1
20260905235849 76 176 0.0 0.0 0.00 0.00 0.00 98 1011.3
20260905235343 77 175 0.0 0.0 0.00 0.00 0.00 98 1011.3
20260905234838 77 145 0.0 0.0 0.00 0.00 0.00 97 1011.4
20260905234334 78 145 0.0 0.0 0.00 0.00 0.00 97 1011.3
20260905233829 78 145 0.0 0.0 0.00 0.00 0.00 96 1011.2
20260905233324 78 145 0.0 0.0 0.00 0.00 0.00 96 1011.3
20260905232823 79 145 0.0 0.0 0.00 0.00 0.00 95 1011.1
20260905232319 78 145 0.0 0.0 0.00 0.00 0.00 95 1011.2
20260905231815 78 145 0.0 0.0 0.00 0.00 0.00 95 1011.2
20260905231310 77 145 0.0 0.0 0.00 0.00 0.00 95 1011.3
20260905230806 76 135 0.0 0.0 0.00 0.00 0.00 97 1011.2
20260905230304 76 123 0.0 0.0 0.00 0.00 0.00 99 1010.8
20260905225803 76 121 0.0 0.0 0.00 0.00 0.00 99 1011.1
20260905225258 75 133 0.0 0.0 0.00 0.00 0.00 99 1010.8
20260905224758 75 5 0.0 0.0 0.00 0.00 0.00 99 1010.9
20260905224254 75 350 0.0 0.0 0.00 0.00 0.00 99 1010.8
20260905223749 74 323 0.0 0.0 0.00 0.00 0.00 99 1010.6
20260905223246 73 183 0.0 0.0 0.00 0.00 0.00 99 1010.6
20260905222741 72 98 0.0 0.0 0.00 0.00 0.00 99 1010.9
20260905222240 72 301 0.0 0.0 0.00 0.00 0.00 99 1010.9
20260905221736 72 316 0.0 0.0 0.00 0.00 0.00 99 1011.2
20260905221233 72 166 0.0 0.0 0.00 0.00 0.00 99 1011.1
20260905220729 71 135 0.0 0.0 0.00 0.00 0.00 98 1010.7
20260905220225 69 354 0.0 0.0 0.00 0.00 0.00 98 1011.1
20260905215724 70 326 0.0 0.0 0.00 0.00 0.00 96 1011.0
20260905215220 72 184 0.9 1.7 0.00 0.00 0.00 97 1012.1
20260905214715 80 20 3.5 6.1 0.00 0.00 0.00 87 1011.2
20260905214211 86 47 0.9 2.6 0.00 0.00 0.00 74 1010.7
20260905213706 89 227 0.0 0.0 0.00 0.00 0.00 68 1010.5
20260905213202 90 162 0.0 0.0 0.00 0.00 0.00 72 1010.4
20260905212657 90 248 0.0 0.0 0.00 0.00 0.00 71 1009.9
20260905212156 90 280 0.0 0.0 0.00 0.00 0.00 74 1010.2
20260905211650 89 263 0.0 0.0 0.00 0.00 0.00 74 1010.6
20260905211146 89 227 0.0 0.0 0.00 0.00 0.00 75 1010.6
20260905210643 89 290 0.9 1.7 0.00 0.00 0.00 73 1010.4
20260905210137 89 243 0.0 0.0 0.00 0.00 0.00 74 1010.3
20260905205636 88 266 0.0 0.0 0.00 0.00 0.00 75 1010.5
20260905205136 89 259 0.9 0.9 0.00 0.00 0.00 75 1010.4
20260905204630 89 267 0.0 0.9 0.00 0.00 0.00 75 1010.5
20260905204125 88 290 0.0 0.0 0.00 0.00 0.00 74 1010.4
20260905203625 89 252 0.0 0.0 0.00 0.00 0.00 75 1010.4
20260905203120 88 249 0.0 0.0 0.00 0.00 0.00 77 1010.6
20260905202616 87 248 0.0 0.0 0.00 0.00 0.00 79 1010.9
20260905202111 85 221 0.0 0.0 0.00 0.00 0.00 81 1010.9
20260905201607 86 285 0.0 0.9 0.00 0.00 0.00 78 1011.0
20260905201106 88 275 0.0 0.9 0.00 0.00 0.00 76 1010.8
20260905200602 88 263 0.9 1.7 0.00 0.00 0.00 75 1010.9
20260905195555 89 288 0.0 0.0 0.00 0.00 0.00 75 1011.0
20260905195052 89 283 0.9 1.7 0.00 0.00 0.00 75 1011.1
20260905194551 88 280 0.9 1.7 0.00 0.00 0.00 73 1011.2
20260905194050 88 279 0.9 0.9 0.00 0.00 0.00 73 1011.0
20260905193545 88 270 0.0 0.9 0.00 0.00 0.00 75 1011.2
20260905193041 87 254 0.0 0.0 0.00 0.00 0.00 77 1011.2
20260905192536 87 269 0.0 0.0 0.00 0.00 0.00 74 1011.3
20260905192033 89 283 1.7 1.7 0.00 0.00 0.00 71 1011.1
20260905191530 89 260 0.0 0.0 0.00 0.00 0.00 71 1011.2
20260905191030 88 240 0.0 0.0 0.00 0.00 0.00 72 1011.3
20260905190528 88 246 0.0 0.0 0.00 0.00 0.00 75 1011.4
20260905190022 89 273 1.7 1.7 0.00 0.00 0.00 72 1011.4
20260905185522 89 282 0.9 1.7 0.00 0.00 0.00 72 1011.5
20260905185021 89 253 0.0 0.0 0.00 0.00 0.00 74 1011.5
20260905184520 88 268 1.7 1.7 0.00 0.00 0.00 71 1011.6
20260905184020 89 205 0.0 0.0 0.00 0.00 0.00 72 1011.7
20260905183519 88 261 0.0 0.9 0.00 0.00 0.00 71 1011.9
20260905183015 88 246 0.9 0.9 0.00 0.00 0.00 70 1011.7
20260905182509 89 277 0.9 1.7 0.00 0.00 0.00 70 1011.5
20260905182004 89 217 0.0 0.0 0.00 0.00 0.00 69 1011.9
20260905181459 88 202 0.0 0.0 0.00 0.00 0.00 70 1012.0
20260905180957 87 263 0.9 1.7 0.00 0.00 0.00 70 1011.9
20260905180452 88 268 1.7 1.7 0.00 0.00 0.00 69 1012.1
20260905175948 88 233 0.0 0.0 0.00 0.00 0.00 71 1012.0
20260905175447 87 276 1.7 3.5 0.00 0.00 0.00 70 1012.0
20260905174943 87 252 0.0 0.0 0.00 0.00 0.00 71 1012.0
20260905174438 87 157 0.0 0.0 0.00 0.00 0.00 70 1012.2
20260905173934 87 261 0.0 0.0 0.00 0.00 0.00 70 1012.2
20260905173430 88 170 0.0 0.0 0.00 0.00 0.00 68 1012.4
20260905172925 87 162 0.0 0.0 0.00 0.00 0.00 69 1012.3
20260905172422 86 252 0.0 0.0 0.00 0.00 0.00 69 1012.6
20260905171919 87 163 0.0 0.0 0.00 0.00 0.00 70 1012.4
20260905171416 86 153 0.0 0.0 0.00 0.00 0.00 70 1012.5
20260905170911 86 216 0.0 0.0 0.00 0.00 0.00 72 1012.6
20260905170407 86 239 0.0 0.9 0.00 0.00 0.00 69 1012.9
20260905165906 85 160 0.0 0.0 0.00 0.00 0.00 72 1012.9
20260905165401 84 188 0.0 0.0 0.00 0.00 0.00 72 1013.0
20260905164856 84 176 0.0 0.0 0.00 0.00 0.00 71 1013.1
20260905164351 85 163 0.0 0.0 0.00 0.00 0.00 70 1013.2
20260905163846 84 189 0.0 0.0 0.00 0.00 0.00 72 1013.1
20260905163343 83 191 0.0 0.0 0.00 0.00 0.00 75 1013.2
20260905162839 82 154 0.0 0.0 0.00 0.00 0.00 75 1013.0
20260905162338 83 167 0.0 0.0 0.00 0.00 0.00 73 1013.2
20260905161833 83 169 0.0 0.0 0.00 0.00 0.00 75 1013.4
20260905161332 83 160 0.0 0.0 0.00 0.00 0.00 75 1013.0
20260905160830 83 148 0.0 0.0 0.00 0.00 0.00 75 1013.0
20260905160325 84 148 0.0 0.0 0.00 0.00 0.00 73 1013.1
20260905155819 84 157 0.0 0.0 0.00 0.00 0.00 73 1013.0
20260905155313 83 177 0.0 0.0 0.00 0.00 0.00 74 1013.1
20260905154807 82 134 0.0 0.0 0.00 0.00 0.00 75 1013.0
20260905154303 83 153 0.0 0.0 0.00 0.00 0.00 73 1013.0
20260905153758 82 182 0.0 0.0 0.00 0.00 0.00 75 1012.9
20260905153254 83 151 0.0 0.0 0.00 0.00 0.00 74 1013.0
20260905152748 82 159 0.0 0.0 0.00 0.00 0.00 74 1013.2
20260905152243 81 152 0.0 0.0 0.00 0.00 0.00 75 1013.0
20260905151742 81 77 0.0 0.9 0.00 0.00 0.00 75 1013.0
20260905151239 80 187 0.0 0.9 0.00 0.00 0.00 78 1013.0
20260905150738 79 164 0.0 0.9 0.00 0.00 0.00 78 1013.2
20260905150238 81 153 0.0 0.9 0.00 0.00 0.00 76 1013.5
20260905145735 81 172 0.0 0.0 0.00 0.00 0.00 76 1012.9
20260905145231 80 154 0.0 0.0 0.00 0.00 0.00 78 1013.0
20260905144729 80 142 0.0 0.9 0.00 0.00 0.00 78 1013.0
20260905144225 79 164 0.0 0.0 0.00 0.00 0.00 78 1013.1
20260905143724 78 162 0.9 2.6 0.00 0.00 0.00 79 1012.9
20260905143223 78 147 0.0 0.0 0.00 0.00 0.00 82 1012.9
20260905142722 78 142 0.0 0.0 0.00 0.00 0.00 81 1012.6
20260905142216 77 145 0.0 0.9 0.00 0.00 0.00 82 1012.9
20260905141712 78 186 0.9 1.7 0.00 0.00 0.00 82 1012.8
20260905141208 77 160 0.0 0.9 0.00 0.00 0.00 81 1013.1
20260905140702 76 125 0.9 2.6 0.00 0.00 0.00 83 1012.8
20260905140157 75 110 0.0 0.9 0.00 0.00 0.00 84 1013.0
20260905135651 75 169 2.6 5.2 0.00 0.00 0.00 84 1013.0
20260905135147 75 155 0.0 0.0 0.00 0.00 0.00 85 1012.7
20260905134647 75 133 0.0 0.9 0.00 0.00 0.00 86 1012.8
20260905134145 75 170 1.7 1.7 0.00 0.00 0.00 85 1012.9
20260905133641 75 157 0.0 0.0 0.00 0.00 0.00 86 1013.1
20260905133136 74 154 0.0 1.7 0.00 0.00 0.00 86 1013.1
20260905132636 74 183 0.0 0.0 0.00 0.00 0.00 86 1013.5
20260905132131 74 139 0.0 0.0 0.00 0.00 0.00 88 1013.4
20260905131626 73 166 0.0 0.9 0.00 0.00 0.00 88 1013.4
20260905131120 74 154 0.0 0.0 0.00 0.00 0.00 87 1013.4
20260905130615 73 140 0.0 0.0 0.00 0.00 0.00 88 1013.1
20260905130114 73 179 0.0 0.0 0.00 0.00 0.00 89 1013.5
20260905125609 72 158 0.9 2.6 0.00 0.00 0.00 89 1013.4
20260905125104 72 128 0.0 0.0 0.00 0.00 0.00 90 1013.5
20260905124602 72 141 0.0 0.0 0.00 0.00 0.00 90 1013.4
20260905124057 72 172 0.0 0.0 0.00 0.00 0.00 91 1013.1
20260905123552 72 152 0.0 0.0 0.00 0.00 0.00 92 1013.4
20260905123049 71 150 0.0 0.0 0.00 0.00 0.00 92 1013.0
20260905122549 71 151 0.0 0.0 0.00 0.00 0.00 91 1013.2
20260905122043 71 148 0.0 0.0 0.00 0.00 0.00 92 1013.4
20260905121537 71 142 0.0 0.0 0.00 0.00 0.00 93 1013.1
20260905121032 70 150 0.0 0.0 0.00 0.00 0.00 93 1013.0
20260905120527 70 153 0.0 0.0 0.00 0.00 0.00 94 1013.0
20260905120022 70 165 0.0 0.0 0.00 0.00 0.00 95 1013.0
20260905115521 70 165 0.0 0.0 0.00 0.00 0.00 95 1012.9
20260905115016 70 154 0.0 0.0 0.00 0.00 0.00 95 1012.9
20260905114515 70 161 0.0 0.0 0.00 0.00 0.00 95 1012.9
20260905114015 70 156 0.0 0.0 0.00 0.00 0.00 95 1013.2
20260905113510 70 118 0.0 0.0 0.00 0.00 0.00 94 1013.0
20260905113005 70 146 0.0 0.0 0.00 0.00 0.00 94 1012.9
20260905112500 70 83 0.0 0.0 0.00 0.00 0.00 94 1013.1
20260905111955 70 121 0.0 0.0 0.00 0.00 0.00 95 1012.9
20260905111449 70 139 0.0 0.0 0.00 0.00 0.00 94 1012.9
20260905110943 70 121 0.9 0.9 0.00 0.00 0.00 94 1012.7
20260905110442 70 125 0.0 0.9 0.00 0.00 0.00 94 1012.8
20260905105937 70 119 0.0 0.0 0.00 0.00 0.00 94 1013.0
20260905105432 70 106 0.9 1.7 0.00 0.00 0.00 94 1012.8
20260905104931 70 98 0.0 0.9 0.00 0.00 0.00 94 1012.7
20260905104427 70 112 0.9 1.7 0.00 0.00 0.00 94 1012.9
20260905103921 70 92 1.7 2.6 0.00 0.00 0.00 93 1013.0
20260905103418 71 148 1.7 2.6 0.00 0.00 0.00 93 1012.8
20260905102913 71 112 0.0 0.9 0.00 0.00 0.00 93 1012.7
20260905102410 71 103 0.9 1.7 0.00 0.00 0.00 93 1013.1
20260905101910 71 108 2.6 2.6 0.00 0.00 0.00 93 1012.9
20260905101408 72 88 1.7 2.6 0.00 0.00 0.00 93 1012.9
20260905100903 74 145 0.0 0.0 0.00 0.00 0.00 96 1012.8
20260905100359 74 135 0.9 1.7 0.00 0.00 0.00 99 1012.5
20260905095858 74 147 0.0 0.0 0.00 0.00 0.00 99 1012.1
20260905095352 74 148 0.0 0.0 0.00 0.00 0.00 99 1011.9
20260905094847 73 148 0.0 0.0 0.00 0.00 0.00 99 1011.7
20260905094343 73 148 0.0 0.0 0.00 0.00 0.00 99 1012.0
20260905093841 73 148 0.0 0.0 0.00 0.00 0.00 99 1011.7
20260905093337 73 149 0.0 0.0 0.00 0.00 0.00 99 1012.0
20260905092833 73 149 0.0 0.0 0.00 0.00 0.00 99 1012.0
20260905092333 73 140 0.0 0.0 0.00 0.00 0.00 99 1011.9
20260905091828 73 140 0.0 0.0 0.00 0.00 0.00 99 1011.9
20260905091328 73 158 0.0 0.0 0.00 0.00 0.00 99 1012.1
20260905090827 73 164 0.0 0.0 0.00 0.00 0.00 99 1011.5
20260905090323 74 164 0.0 0.0 0.00 0.00 0.00 99 1011.7
20260905085822 74 164 0.0 0.0 0.00 0.00 0.00 99 1011.8
20260905085316 74 164 0.0 0.0 0.00 0.00 0.00 98 1011.9
20260905084812 75 164 0.0 0.0 0.00 0.00 0.00 97 1011.7
20260905084311 75 164 0.0 0.0 0.00 0.00 0.00 97 1011.6
20260905083807 75 164 0.0 0.0 0.00 0.00 0.00 97 1011.7
20260905083303 75 163 0.0 0.0 0.00 0.00 0.00 97 1011.7
20260905082757 75 163 0.0 0.0 0.00 0.00 0.00 97 1011.6
20260905082253 75 163 0.0 0.0 0.00 0.00 0.00 97 1012.0
20260905081748 75 163 0.0 0.0 0.00 0.00 0.00 98 1011.6
20260905081243 75 163 0.0 0.0 0.00 0.00 0.00 98 1011.8
20260905080742 75 163 0.0 0.0 0.00 0.00 0.00 98 1011.7
20260905080237 75 183 0.0 0.0 0.00 0.00 0.00 98 1011.8
20260905075736 75 183 0.0 0.0 0.00 0.00 0.00 98 1011.6
20260905075235 75 183 0.0 0.0 0.00 0.00 0.00 97 1011.6
20260905074734 75 183 0.0 0.0 0.00 0.00 0.00 97 1011.6
20260905074230 76 183 0.0 0.0 0.00 0.00 0.00 96 1011.4
20260905073726 76 184 0.0 0.0 0.00 0.00 0.00 96 1011.4